Latest Weather Observations for Thredbo Top Station

IDN60901

Issued at 5:11 pm EST Wednesday 29 June 2016 (issued every 10 minutes, with the page automatically refreshed every 10 minutes)

About weather observations | Map of Canberra area stations | Latest observations for Canberra area | Other Formats
Station Details ID: 071032 Name: THREDBO AWS Lat: -36.49 Lon: 148.29 Height: 1957.0 m
Data from the previous 72 hours. | See also: Recent months at Thredbo Top Station
Date/Time
EST
Temp
°C
App
Temp
°C
Dew
Point
°C
Rel
Hum
%
Delta-T
°C
Wind Press
QNH
hPa
Press
MSL
hPa
Rain since
9am
mm
Dir  Spd
km/h
Gust
km/h
Spd
kts
Gust
kts
29/05:00pm -2.7 -12.1 -2.8 99 -0.1 NNW 37 43 20 23 1023.0 1025.5 0.0
29/04:30pm -1.5 -9.8 -1.6 99 0.0 NW 32 39 17 21 1023.3 1025.7 0.0
29/04:00pm -1.6 -10.1 -1.7 99 0.0 NNW 33 39 18 21 1023.3 1025.7 0.0
29/03:30pm -2.3 -9.5 -2.4 99 -0.1 NNW 26 28 14 15 1023.7 1026.2 0.0
29/03:00pm -1.9 -7.8 -2.0 99 -0.1 N 19 24 10 13 1024.0 1026.5 0.0
29/02:30pm -1.6 -7.6 -1.7 99 0.0 NNW 20 24 11 13 1024.0 1026.5 0.0
29/02:00pm -1.4 -8.2 -1.5 99 0.0 NNW 24 26 13 14 1024.2 1026.8 0.0
29/01:30pm -1.3 -7.3 -1.4 99 0.0 NNW 20 26 11 14 1024.3 1026.9 0.0
29/01:00pm -1.2 -7.0 -1.3 99 0.0 NNW 19 20 10 11 1024.7 1027.3 0.0
29/12:30pm -1.5 -6.2 -1.6 99 0.0 NNW 13 17 7 9 1025.2 1027.8 0.0
29/12:00pm -1.4 -6.1 -1.5 99 0.0 NNW 13 15 7 8 1025.8 1028.4 0.0
29/11:30am -1.2 -4.7 -1.3 99 0.0 NNW 7 9 4 5 1026.5 1029.2 0.0
29/11:00am -1.2 -4.7 -1.3 99 0.0 N 7 11 4 6 1026.7 1029.3 0.0
29/10:30am -1.3 -4.2 -1.4 99 0.0 NNW 4 7 2 4 1026.9 1029.5 0.0
29/10:00am -1.1 -3.6 -1.2 99 0.0 W 2 7 1 4 1026.9 1029.5 0.0
29/09:30am -1.9 -7.4 -2.0 99 -0.1 WNW 17 20 9 11 1026.8 1029.4 0.0
29/09:00am -1.9 -7.8 -2.0 99 -0.1 WNW 19 24 10 13 1026.7 1029.3 0.2
29/08:30am -1.8 -7.8 -1.9 99 -0.1 W 20 24 11 13 1026.4 1029.0 0.2
29/08:00am -1.8 -8.2 -1.9 99 -0.1 W 22 26 12 14 1026.0 1028.7 0.2
29/07:30am -2.4 -8.9 -2.5 99 -0.1 W 22 26 12 14 1025.9 1028.5 0.2
29/07:00am -2.1 -8.0 -2.2 99 -0.1 WSW 19 28 10 15 1025.8 1028.4 0.2
29/06:30am -2.3 -8.4 -2.4 99 -0.1 W 20 24 11 13 1025.7 1028.3 0.2
29/06:00am -2.5 -8.6 -2.6 99 -0.1 W 20 26 11 14 1025.6 1028.2 0.2
29/05:30am -2.5 -8.4 -2.6 99 -0.1 W 19 26 10 14 1025.2 1027.8 0.2
29/05:00am -2.9 -9.1 -3.0 99 -0.1 W 20 26 11 14 1025.1 1027.6 0.2
29/04:30am -2.7 -8.3 -2.8 99 -0.1 W 17 22 9 12 1025.0 1027.5 0.2
29/04:00am -3.2 -10.2 -3.3 99 -0.1 WNW 24 30 13 16 1025.0 1027.5 0.2
29/03:30am -2.7 -11.1 -2.8 99 -0.1 W 32 41 17 22 1024.7 1027.3 0.2
29/03:00am -2.7 -11.3 -2.8 99 -0.1 W 33 43 18 23 1024.7 1027.3 0.2
29/02:30am -2.5 -11.5 -2.6 99 -0.1 W 35 46 19 25 1024.6 1027.1 0.2
29/02:00am -3.0 -11.1 -3.1 99 -0.1 W 30 41 16 22 1024.7 1027.3 0.2
29/01:30am -3.1 -11.8 -3.2 99 -0.1 WNW 33 41 18 22 1024.8 1027.4 0.2
29/01:00am -2.9 -11.9 -3.0 99 -0.1 WNW 35 44 19 24 1024.8 1027.4 0.2
29/12:30am -3.2 -11.7 -3.3 99 -0.1 WNW 32 37 17 20 1025.0 1027.5 0.0
29/12:00am -3.1 -11.6 -3.2 99 -0.1 WNW 32 39 17 21 1025.0 1027.5 0.0
 
Date/Time
EST
Temp
°C
App
Temp
°C
Dew
Point
°C
Rel
Hum
%
Delta-T
°C
Wind Press
QNH
hPa
Press
MSL
hPa
Rain since
9am
mm
Dir  Spd
km/h
Gust
km/h
Spd
kts
Gust
kts
28/11:30pm -3.1 -11.8 -3.2 99 -0.1 WNW 33 43 18 23 1025.1 1027.6 0.0
28/11:00pm -3.1 -12.2 -3.2 99 -0.1 WNW 35 41 19 22 1025.3 1027.9 0.0
28/10:30pm -3.3 -12.4 -3.4 99 -0.1 WNW 35 43 19 23 1025.3 1027.9 0.0
28/10:00pm -3.4 -11.9 -3.5 99 -0.1 WNW 32 39 17 21 1025.2 1027.8 0.0
28/09:30pm -3.4 -11.9 -3.5 99 -0.1 WNW 32 43 17 23 1025.2 1027.8 0.0
28/09:00pm -3.1 -10.1 -3.2 99 -0.1 W 24 33 13 18 1025.1 1027.6 0.0
28/08:30pm -2.7 -10.4 -2.8 99 -0.1 W 28 39 15 21 1024.8 1027.4 0.0
28/08:00pm -2.2 -9.8 -2.3 99 -0.1 WSW 28 39 15 21 1025.0 1027.5 0.0
28/07:30pm -2.4 -11.0 -2.5 99 -0.1 WSW 33 44 18 24 1025.0 1027.5 0.0
28/07:00pm -2.9 -9.5 -3.0 99 -0.1 W 22 30 12 16 1024.8 1027.4 0.0
28/06:30pm -2.8 -9.0 -2.9 99 -0.1 WSW 20 33 11 18 1024.3 1026.9 0.0
28/06:00pm -2.5 -8.6 -2.6 99 -0.1 WSW 20 28 11 15 1024.1 1026.6 0.0
28/05:30pm -2.5 -8.6 -2.6 99 -0.1 WSW 20 28 11 15 1023.7 1026.2 0.0
28/05:00pm -2.6 -9.9 -2.7 99 -0.1 WSW 26 37 14 20 1023.7 1026.2 0.0
28/04:30pm -2.5 -8.6 -2.6 99 -0.1 W 20 28 11 15 1023.5 1026.0 0.0
28/04:00pm -2.3 -8.4 -2.4 99 -0.1 WSW 20 30 11 16 1023.3 1025.7 0.0
28/03:30pm -2.3 -8.4 -2.4 99 -0.1 SW 20 32 11 17 1023.1 1025.6 0.0
28/03:00pm -2.3 -9.9 -2.4 99 -0.1 WSW 28 41 15 22 1022.8 1025.2 0.0
28/02:30pm -2.6 -9.9 -2.7 99 -0.1 WSW 26 35 14 19 1022.5 1025.0 0.0
28/02:00pm -3.4 -9.6 -3.5 99 -0.1 WSW 20 32 11 17 1022.3 1024.7 0.0
28/01:30pm -4.0 -10.7 -4.1 99 -0.1 WSW 22 32 12 17 1021.9 1024.3 0.0
28/01:00pm -4.0 -10.3 -4.1 99 -0.1 W 20 26 11 14 1021.9 1024.3 0.0
28/12:30pm -4.1 -10.4 -4.2 99 -0.2 W 20 26 11 14 1021.8 1024.2 0.0
28/12:00pm -4.1 -11.2 -4.2 99 -0.2 W 24 32 13 17 1021.9 1024.3 0.0
28/11:30am -4.3 -11.4 -4.4 99 -0.2 WSW 24 32 13 17 1022.0 1024.5 0.0
28/11:00am -4.7 -12.2 -4.8 99 -0.2 W 26 35 14 19 1022.0 1024.5 0.0
28/10:30am -4.9 -12.8 -5.0 99 -0.2 WSW 28 39 15 21 1021.8 1024.2 0.0
28/10:00am -5.3 -13.6 -5.4 99 -0.2 W 30 39 16 21 1021.7 1024.1 0.0
28/09:30am -5.3 -13.3 -5.4 99 -0.2 W 28 37 15 20 1021.4 1023.8 0.0
28/09:00am -5.3 -13.7 -5.6 98 -0.1 W 30 41 16 22 1021.1 1023.5 0.0
28/08:30am -5.5 -13.9 -5.8 98 -0.1 W 30 41 16 22 1020.7 1023.1 0.0
28/08:00am -5.7 -14.5 -6.0 98 -0.1 W 32 46 17 25 1020.2 1022.6 0.0
28/07:30am -5.7 -13.7 -6.0 98 -0.1 W 28 44 15 24 1019.9 1022.2 0.0
28/07:00am -5.9 -13.2 -6.2 98 -0.1 W 24 33 13 18 1019.6 1021.9 0.0
28/06:30am -6.0 -13.3 -6.3 98 -0.2 WSW 24 32 13 17 1019.4 1021.7 0.0
28/06:00am -6.1 -14.2 -6.4 98 -0.2 WSW 28 35 15 19 1018.8 1021.0 0.0
28/05:30am -6.5 -13.1 -6.9 97 -0.1 W 20 32 11 17 1018.3 1020.5 0.0
28/05:00am -6.4 -12.0 -6.8 97 -0.1 W 15 22 8 12 1018.4 1020.7 0.0
28/04:30am -6.4 -13.4 -6.7 98 -0.2 WNW 22 30 12 16 1018.2 1020.4 0.0
28/04:00am -5.8 -12.3 -6.1 98 -0.1 W 20 26 11 14 1018.0 1020.3 0.0
28/03:30am -5.0 -13.3 -5.3 98 -0.1 WNW 30 35 16 19 1017.8 1020.0 0.0
28/03:00am -4.7 -13.6 -5.0 98 -0.1 WNW 33 43 18 23 1017.4 1019.6 0.0
28/02:30am -4.4 -14.7 -4.5 99 -0.2 WNW 41 48 22 26 1017.2 1019.4 0.0
28/02:00am -4.1 -13.7 -4.2 99 -0.2 W 37 48 20 26 1017.1 1019.3 0.0
28/01:30am -3.9 -11.7 -4.0 99 -0.1 W 28 48 15 26 1017.1 1019.3 0.0
28/01:14am -3.9 -12.1 -4.0 99 -0.1 W 30 48 16 26 1017.3 1019.5 0.0
28/01:00am -4.1 -12.7 -4.2 99 -0.2 W 32 44 17 24 1017.2 1019.4 0.0
28/12:30am -4.1 -12.3 -4.2 99 -0.2 W 30 41 16 22 1017.2 1019.4 0.0
28/12:00am -3.8 -10.8 -3.9 99 -0.1 W 24 33 13 18 1017.3 1019.5 0.0
 
Date/Time
EST
Temp
°C
App
Temp
°C
Dew
Point
°C
Rel
Hum
%
Delta-T
°C
Wind Press
QNH
hPa
Press
MSL
hPa
Rain since
9am
mm
Dir  Spd
km/h
Gust
km/h
Spd
kts
Gust
kts
27/11:30pm -3.7 -10.4 -3.8 99 -0.1 W 22 33 12 18 1017.6 1019.8 0.0
27/11:00pm -3.8 -9.1 -3.9 99 -0.1 WSW 15 24 8 13 1017.4 1019.6 0.0
27/10:30pm -3.8 -10.8 -3.9 99 -0.1 WSW 24 30 13 16 1017.4 1019.6 0.0
27/10:00pm -3.7 -9.8 -3.8 99 -0.1 WSW 19 26 10 14 1017.3 1019.5 0.0
27/09:30pm -3.9 -11.3 -4.0 99 -0.1 WSW 26 33 14 18 1017.2 1019.4 0.0
27/09:00pm -3.8 -10.8 -3.9 99 -0.1 WSW 24 33 13 18 1017.0 1019.1 0.0
27/08:30pm -3.5 -10.5 -3.6 99 -0.1 WSW 24 35 13 19 1016.6 1018.8 0.0
27/08:00pm -3.4 -10.4 -3.5 99 -0.1 WSW 24 32 13 17 1017.0 1019.1 0.0
27/07:30pm -3.5 -10.1 -3.6 99 -0.1 SW 22 32 12 17 1016.7 1018.9 0.0
27/07:00pm -3.6 -9.9 -3.7 99 -0.1 SW 20 28 11 15 1016.5 1018.6 0.0
27/06:30pm -3.8 -10.5 -3.9 99 -0.1 SW 22 30 12 16 1016.1 1018.2 0.0
27/06:00pm -4.0 -12.6 -4.1 99 -0.1 SW 32 39 17 21 1015.7 1017.9 0.0
27/05:30pm -4.1 -11.9 -4.2 99 -0.2 SW 28 35 15 19 1015.1 1017.2 0.0
27/05:00pm -4.1 -12.3 -4.2 99 -0.2 SW 30 35 16 19 1014.9 1017.0 0.0
27/04:30pm -4.3 -12.9 -4.4 99 -0.2 WSW 32 41 17 22 - - 0.0
27/04:00pm -4.4 -13.0 -4.5 99 -0.2 WSW 32 41 17 22 - - 0.0
27/03:30pm -4.8 -13.1 -5.1 98 -0.1 WSW 30 37 16 20 - - 0.0
27/03:00pm -4.9 -12.5 -5.2 98 -0.1 WSW 26 33 14 18 - - 0.0
27/02:30pm -5.2 -12.0 -5.5 98 -0.1 WSW 22 30 12 16 - - 0.0
27/02:00pm -5.7 -14.5 -6.0 98 -0.1 WSW 32 39 17 21 - - 0.0
27/01:30pm -5.7 -13.0 -6.0 98 -0.1 WSW 24 32 13 17 - - 0.0
27/01:00pm -5.9 -13.9 -6.2 98 -0.1 WSW 28 33 15 18 - - 0.0
27/12:30pm -5.7 -13.3 -6.0 98 -0.1 WSW 26 33 14 18 - - 0.0
27/12:00pm -5.0 -12.6 -5.3 98 -0.1 WSW 26 33 14 18 - - 0.0
27/11:30am -4.2 -11.3 -4.3 99 -0.2 WSW 24 32 13 17 - - 0.0
27/11:00am -4.1 -10.2 -4.2 99 -0.2 WSW 19 24 10 13 - - 0.0
27/10:30am -4.3 -10.5 -4.4 99 -0.2 WSW 19 24 10 13 - - 0.0
27/10:00am -4.6 -10.8 -4.7 99 -0.2 W 19 22 10 12 - - 0.0
27/09:30am -4.9 -11.3 -5.2 98 -0.1 W 20 24 11 13 - - 0.0
27/09:00am -5.3 -11.8 -5.6 98 -0.1 W 20 22 11 12 - - 0.6
27/08:30am -5.9 -11.9 -6.2 98 -0.1 W 17 20 9 11 - - 0.6
27/08:00am -6.4 -13.0 -6.7 98 -0.2 W 20 26 11 14 - - 0.6
27/07:30am -6.3 -12.9 -6.6 98 -0.2 W 20 26 11 14 - - 0.6
27/07:00am -6.1 -12.5 -6.4 98 -0.2 W 19 24 10 13 - - 0.6
27/06:30am -6.1 -12.6 -6.4 98 -0.2 W 20 24 11 13 - - 0.6
27/06:00am -5.8 -13.1 -6.1 98 -0.1 WNW 24 26 13 14 - - 0.6
27/05:30am -5.5 -12.0 -5.8 98 -0.1 WNW 20 24 11 13 - - 0.6
27/05:00am -5.4 -11.9 -5.7 98 -0.1 WNW 20 26 11 14 - - 0.6
27/04:30am -5.4 -12.6 -5.7 98 -0.1 WNW 24 28 13 15 - - 0.6
27/04:00am -5.3 -12.1 -5.6 98 -0.1 WNW 22 26 12 14 - - 0.6
27/03:30am -5.2 -12.0 -5.5 98 -0.1 WNW 22 28 12 15 - - 0.6
27/03:00am -5.1 -12.7 -5.4 98 -0.1 WNW 26 33 14 18 - - 0.6
27/02:30am -5.2 -13.2 -5.5 98 -0.1 WNW 28 33 15 18 - - 0.6
27/02:00am -5.2 -13.2 -5.5 98 -0.1 WNW 28 32 15 17 - - 0.6
27/01:30am -5.3 -13.3 -5.6 98 -0.1 WNW 28 33 15 18 - - 0.6
27/01:00am -5.3 -13.3 -5.6 98 -0.1 WNW 28 32 15 17 - - 0.6
27/12:30am -5.3 -12.9 -5.6 98 -0.1 WNW 26 32 14 17 - - 0.6
27/12:00am -5.3 -12.9 -5.6 98 -0.1 WNW 26 32 14 17 - - 0.6
 
Date/Time
EST
Temp
°C
App
Temp
°C
Dew
Point
°C
Rel
Hum
%
Delta-T
°C
Wind Press
QNH
hPa
Press
MSL
hPa
Rain since
9am
mm
Dir  Spd
km/h
Gust
km/h
Spd
kts
Gust
kts
26/11:30pm -5.4 -13.0 -5.7 98 -0.1 WNW 26 32 14 17 - - 0.6
26/11:00pm -5.8 -13.5 -6.1 98 -0.1 WNW 26 32 14 17 - - 0.6
26/10:30pm -6.1 -8.8 -6.4 98 -0.2 CALM 0 0 0 0 - - 0.6
26/10:00pm -6.2 -9.0 -6.5 98 -0.2 CALM 0 0 0 0 - - 0.6
26/09:30pm -6.0 -8.7 -6.3 98 -0.2 CALM 0 0 0 0 - - 0.6
26/09:00pm -5.9 -8.6 -6.2 98 -0.1 CALM 0 0 0 0 - - 0.6
26/08:30pm -5.9 -11.5 -6.2 98 -0.1 W 15 19 8 10 - - 0.6
26/08:00pm -5.8 -12.3 -6.1 98 -0.1 WNW 20 22 11 12 - - 0.6
26/07:30pm -5.8 -11.4 -6.1 98 -0.1 WNW 15 20 8 11 - - 0.6
26/07:00pm -5.6 -8.3 -5.9 98 -0.1 CALM 0 0 0 0 - - 0.6
26/06:30pm -5.6 -10.8 -5.9 98 -0.1 - 13 24 7 13 1014.3 1016.3 0.6
26/06:00pm -5.4 -11.9 -5.7 98 -0.1 WNW 20 26 11 14 - - 0.6
26/05:30pm -5.3 -13.3 -5.6 98 -0.1 WNW 28 32 15 17 - - 0.6

Latest Capital City Observations: Canberra | Sydney | Melbourne | Brisbane | Adelaide | Perth | Hobart | Darwin

Other Formats:

Comma delimited format used in spreadsheet applications
http://www.bom.gov.au/fwo/IDN60903/IDN60903.95909.axf

JavaScript Object Notation format (JSON) in row-major order
http://www.bom.gov.au/fwo/IDN60903/IDN60903.95909.json